Location: Jaite
(41.2884°N, 81.5737°W)
Time: 14:01:40
(UTC+00:00)

Daily predictions for brighter satellites

Satellite Brightness Start Highest point End
(mag) Time Altitude Azimuth Time Altitude Azimuth Time Altitude Azimuth
Radarsat Rocket 4.1 22:20:08 10° SSE 22:26:01 67° ENE 22:32:29 10° N
USA 281 4.3 22:28:20 10° E 22:32:59 21° NE 22:37:38 10° N
MOS 1-B 4.4 22:27:47 10° SSE 22:33:35 90° W 22:39:26 10° NNW
CZ-4B R/B 3.2 22:29:35 10° SSE 22:34:49 58° ENE 22:40:02 10° N
H-2A R/B 3.6 22:32:08 10° S 22:35:52 56° W 22:39:41 10° NNW
ISS -2.7 22:33:08 10° W 22:36:19 39° NNW 22:39:31 10° NE
Cosmos 1939 Rocket 4.2 22:33:58 10° ESE 22:36:30 17° ENE 22:39:03 10° NNE
Landsat 5 3.8 22:32:08 10° N 22:36:33 78° WNW 22:41:02 10° SSW
Cosmos 2237 Rocket 2.2 22:31:54 10° SSW 22:37:31 83° ESE 22:43:11 10° NNE
OE (NEXTSAT) 4.4 22:34:55 10° SW 22:38:20 68° SSE 22:41:40 11° ENE
CORIOLIS 4.2 22:40:54 10° SSE 22:46:11 61° ENE 22:51:33 10° N
Nadezhda 1 Rocket 4.2 22:42:16 10° S 22:48:36 82° W 22:55:02 10° N
CREW DRAGON DEMO-1 DEB 4.4 22:46:20 10° NNW 22:48:36 19° NNE 22:50:09 14° ENE
FengYun 1-2 T 4.3 22:44:59 10° SE 22:50:22 53° ENE 22:55:43 10° N
Cosmos 405 Rocket 3.4 22:46:37 10° NNW 22:50:30 61° W 22:54:25 10° S
H-2A R/B 2.3 22:46:25 10° N 22:50:35 71° WNW 22:54:48 10° SSW
CZ-4B R/B 1.8 22:47:48 10° NNE 22:50:40 35° E 22:53:33 10° SSE
Cosmos 2369 Rocket 3.9 22:49:35 10° NNE 22:52:05 13° NE 22:53:22 12° ENE
Cosmos 1356 3.9 22:49:26 10° N 22:52:39 37° ENE 22:55:50 10° SE
Abrixas rocket 2.5 22:52:06 10° WNW 22:54:48 54° SSW 22:57:30 10° SE
SKYMED 2 4.4 22:52:01 10° NE 22:55:49 29° E 22:59:36 10° SSE
Cosmos 1980 4.1 22:50:24 10° SSW 22:56:02 66° WNW 23:01:43 10° NNE
Cosmos 1633 Rocket 3.7 22:57:02 10° NNE 23:01:00 32° ENE 23:04:55 10° SE
ADEOS Rocket 4.5 22:55:51 10° N 23:03:13 52° WNW 23:10:38 10° SW
X-37B 3.0 23:02:50 10° SSE 23:03:36 11° SE 23:04:24 10° SE
Cosmos 1867 3.5 22:59:01 10° SSW 23:04:24 74° ESE 23:09:40 11° NE
Cosmos 2154 Rocket 4.5 23:01:31 10° NNW 23:07:47 66° W 23:14:04 10° S
Cosmos 1606 2.7 23:03:57 10° S 23:07:51 88° WNW 23:11:46 10° N
Cosmos 962 Rocket 4.4 23:01:55 10° N 23:08:14 76° E 23:14:25 10° SSE
Cosmos 1933 3.4 23:06:38 10° S 23:10:31 52° E 23:14:29 10° NNE
SAR-Lupe-4 4.2 23:08:16 16° NE 23:10:45 35° E 23:14:03 10° SSE
CZ-2C R/B 3.8 23:08:57 10° SE 23:13:13 27° ENE 23:17:21 10° N
SMAP 3.7 23:08:40 10° S 23:13:15 61° W 23:17:52 10° NNW
Cosmos 1818 4.1 23:08:06 10° NW 23:13:31 63° WSW 23:18:52 10° SSE
Cosmos 1943 Rocket 3.0 23:11:52 10° N 23:16:35 28° NE 23:19:12 19° E
USA 215 3.3 23:12:52 14° NE 23:18:41 90° NNW 23:25:14 10° SW
Cosmos 2341 Rocket 4.0 23:12:23 10° N 23:18:42 81° E 23:25:03 10° S
Cosmos 1125 Rocket 4.1 23:15:00 10° NNW 23:20:07 59° WSW 23:25:13 10° S
Cosmos 2297 3.9 23:15:19 10° NNW 23:20:50 49° ENE 23:26:21 10° SE
Cosmos 1782 3.4 23:20:59 10° SSE 23:24:32 33° E 23:25:18 30° ENE
SL-16 R/B 2.1 23:20:40 10° SSW 23:26:18 75° ESE 23:31:22 13° NNE
Meteor 1-4 Rocket 3.2 23:23:05 10° SSE 23:26:24 33° E 23:26:26 33° E
SAR-Lupe-1 4.1 23:25:48 22° NNE 23:27:53 56° E 23:31:25 10° S
BREEZE-M DEB (TANK) 4.2 23:18:13 10° SW 23:29:27 47° SSE 23:31:28 28° E
YAOGAN 1 3.5 23:30:24 27° NE 23:30:24 27° NE 23:33:16 10° N
ERS-2 2.4 23:27:31 10° N 23:31:10 68° WNW 23:34:48 10° SSW
Cosmos 1689 Rocket 2.4 23:32:44 44° SE 23:32:44 44° SE 23:35:11 10° S
Cosmos 2285 Rocket 4.0 23:26:34 10° NNW 23:32:53 58° ENE 23:39:07 10° SE
PSLV R/B 4.0 23:32:06 26° NE 23:34:05 52° E 23:38:01 10° S
SL-24 R/B 3.7 23:32:18 18° NNE 23:35:07 64° E 23:38:48 10° S
Helios 1A Rocket 3.3 23:36:27 38° ENE 23:36:27 38° ENE 23:39:57 10° N
BREEZE-M DEB (TANK) 3.0 23:34:08 10° W 23:36:12 28° NNW 23:36:12 28° NNW
Cosmos 1470 Rocket 3.7 23:33:32 10° N 23:37:42 45° ENE 23:41:50 10° SSE
Cosmos 864 Rocket 4.4 23:31:28 10° N 23:37:47 67° E 23:43:59 10° SSE
SL-8 Rocket 3.9 23:32:03 10° N 23:38:19 87° E 23:44:36 10° S
Meteor 1-26 Rocket 4.3 23:34:33 10° S 23:40:30 71° E 23:46:31 10° NNE
IRS-1C Rocket 4.0 23:36:32 10° SSE 23:41:48 78° ENE 23:47:06 10° N
Cosmos 1515 Rocket 3.7 23:38:58 10° SSE 23:43:08 48° E 23:43:50 43° ENE
BREEZE-M DEB (TANK) 4.2 23:41:58 10° NW 23:42:50 15° NNW 23:42:50 15° NNW
COSMO-SKYMED 1 2.6 23:39:36 10° N 23:43:58 81° WNW 23:48:18 10° SSW
CZ-2D R/B 3.0 23:40:26 10° SSE 23:44:13 73° ENE 23:48:02 10° N
Lacrosse 5 rocket 1.0 23:41:09 10° SW 23:44:49 76° NW 23:45:31 54° NNE
Cosmos 2181 Rocket 4.2 23:38:58 10° S 23:45:25 80° W 23:51:50 10° N
Cosmos 1959 Rocket 4.4 23:40:24 10° N 23:46:48 83° E 23:53:09 10° S
Cosmos 1602 4.2 23:43:17 10° N 23:49:54 18° SSE 23:50:59 10° SSE
Okean-O 2.6 23:44:28 10° SSE 23:48:49 57° ENE 23:53:10 10° N
USA 267 3.4 23:47:07 31° E 23:50:02 53° NNE 23:56:21 10° NW
Cosmos 1821 Rocket 4.4 23:46:34 10° N 23:52:21 38° ENE 23:53:05 37° E
MOS 1 Rocket 3.6 23:51:15 23° NNE 23:54:34 59° E 23:59:54 10° S
